When you browse on this site, cookies collect data to enhance your experience and personalize the content and advertising you see.
Visit our Privacy Policy to learn more. By continuing to use the site, you agree to this use of cookies and data.
  • Em Portugal
  • Lista de países
  • Para 7 dias
  • Temperatura da água
  • Mapas de satélite
  • Mapa do tempo
  • Widgets de tempo
  • user-avatar
    Iniciar Sessão

    Previsão horária em Banja Luka

    Hoje, 23 Abril, Terça-feira

    Tempo Temperatura Precipitação Vento Pressão Humidade
    00:00 +10°C° 0.1 mm 2 m/s 711 mmHg 81%
    01:00 +11°C° 0 mm 1 m/s 711 mmHg 86%
    02:00 +11°C° 1.1 mm 1 m/s 711 mmHg 88%
    03:00 +11°C° 1.1 mm 1 m/s 710 mmHg 90%
    04:00 +11°C° 1.1 mm 1 m/s 710 mmHg 92%
    05:00 +10°C° 0 mm 2 m/s 710 mmHg 88%
    06:00 +12°C° 0 mm 2 m/s 710 mmHg 84%
    07:00 +12°C° 0 mm 3 m/s 710 mmHg 80%
    08:00 +14°C° 0 mm 4 m/s 710 mmHg 70%
    09:00 +15°C° 0 mm 5 m/s 710 mmHg 60%
    10:00 +17°C° 0 mm 6 m/s 710 mmHg 49%
    11:00 +19°C° 0 mm 6 m/s 710 mmHg 50%
    12:00 +18°C° 0 mm 7 m/s 710 mmHg 50%
    13:00 +18°C° 0 mm 7 m/s 710 mmHg 50%
    14:00 +19°C° 0 mm 6 m/s 710 mmHg 53%
    15:00 +17°C° 0 mm 6 m/s 710 mmHg 56%
    16:00 +17°C° 0 mm 6 m/s 710 mmHg 58%
    17:00 +15°C° 0 mm 5 m/s 710 mmHg 65%
    18:00 +14°C° 0 mm 3 m/s 710 mmHg 72%
    19:00 +13°C° 0 mm 2 m/s 710 mmHg 78%
    20:00 +13°C° 0 mm 2 m/s 710 mmHg 80%
    21:00 +13°C° 0 mm 2 m/s 711 mmHg 82%
    22:00 +13°C° 0 mm 2 m/s 711 mmHg 84%
    23:00 +13°C° 0 mm 2 m/s 711 mmHg 85%

    Amanhã, 24 Abril, Quarta-feira

    Tempo Temperatura Precipitação Vento Pressão Humidade
    00:00 +12°C° 0 mm 2 m/s 712 mmHg 86%
    01:00 +12°C° 0 mm 2 m/s 712 mmHg 87%
    02:00 +12°C° 0 mm 2 m/s 712 mmHg 87%
    03:00 +12°C° 0 mm 2 m/s 713 mmHg 87%
    04:00 +12°C° 0 mm 2 m/s 713 mmHg 87%
    05:00 +12°C° 0 mm 3 m/s 713 mmHg 82%
    06:00 +13°C° 0 mm 3 m/s 714 mmHg 77%
    07:00 +15°C° 0 mm 4 m/s 714 mmHg 71%
    08:00 +17°C° 0 mm 4 m/s 715 mmHg 65%
    09:00 +17°C° 0 mm 5 m/s 715 mmHg 59%
    10:00 +20°C° 0 mm 5 m/s 716 mmHg 53%
    11:00 +20°C° 0 mm 5 m/s 716 mmHg 51%
    12:00 +21°C° 0 mm 5 m/s 716 mmHg 48%
    13:00 +22°C° 0 mm 5 m/s 717 mmHg 46%
    14:00 +22°C° 0 mm 5 m/s 717 mmHg 47%
    15:00 +22°C° 0 mm 5 m/s 716 mmHg 48%
    16:00 +21°C° 0 mm 4 m/s 716 mmHg 49%
    17:00 +19°C° 0 mm 4 m/s 716 mmHg 58%
    18:00 +17°C° 0 mm 3 m/s 716 mmHg 67%
    19:00 +15°C° 0 mm 2 m/s 716 mmHg 76%
    20:00 +14°C° 0 mm 2 m/s 716 mmHg 78%
    21:00 +13°C° 0 mm 2 m/s 717 mmHg 81%
    22:00 +12°C° 0 mm 2 m/s 717 mmHg 84%
    23:00 +12°C° 0 mm 2 m/s 717 mmHg 82%

    Depois de amanhã, 25 Abril, Quinta-feira

    Tempo Temperatura Precipitação Vento Pressão Humidade
    00:00 +12°C° 0 mm 2 m/s 717 mmHg 80%
    01:00 +12°C° 0 mm 2 m/s 717 mmHg 79%
    02:00 +12°C° 0 mm 2 m/s 717 mmHg 78%
    03:00 +12°C° 0 mm 2 m/s 717 mmHg 78%
    04:00 +12°C° 0 mm 2 m/s 717 mmHg 77%
    05:00 +13°C° 0 mm 2 m/s 718 mmHg 74%
    06:00 +15°C° 0 mm 2 m/s 718 mmHg 70%
    07:00 +16°C° 0 mm 2 m/s 718 mmHg 67%
    08:00 +20°C° 0 mm 1 m/s 719 mmHg 58%
    09:00 +23°C° 0 mm 1 m/s 719 mmHg 49%
    10:00 +26°C° 0 mm 1 m/s 720 mmHg 40%
    11:00 +27°C° 0 mm 1 m/s 719 mmHg 38%
    12:00 +28°C° 0 mm 1 m/s 719 mmHg 35%
    13:00 +29°C° 0 mm 1 m/s 719 mmHg 33%
    14:00 +28°C° 0 mm 1 m/s 719 mmHg 35%
    15:00 +27°C° 0 mm 1 m/s 719 mmHg 37%
    16:00 +26°C° 0 mm 1 m/s 718 mmHg 39%
    17:00 +24°C° 0 mm 1 m/s 718 mmHg 48%
    18:00 +21°C° 0 mm 1 m/s 717 mmHg 56%
    19:00 +19°C° 0 mm 1 m/s 717 mmHg 65%
    20:00 +18°C° 0 mm 1 m/s 717 mmHg 68%
    21:00 +16°C° 0 mm 2 m/s 717 mmHg 71%
    22:00 +15°C° 0 mm 2 m/s 717 mmHg 73%
    23:00 +15°C° 0 mm 2 m/s 717 mmHg 73%

    26 Abril, Sexta-feira

    Tempo Temperatura Precipitação Vento Pressão Humidade
    00:00 +14°C° 0 mm 2 m/s 717 mmHg 72%
    01:00 +13°C° 0 mm 2 m/s 717 mmHg 72%
    02:00 +13°C° 0 mm 2 m/s 717 mmHg 70%
    03:00 +13°C° 0 mm 2 m/s 717 mmHg 69%
    04:00 +13°C° 0 mm 2 m/s 717 mmHg 67%
    05:00 +14°C° 0 mm 2 m/s 717 mmHg 64%
    06:00 +15°C° 0 mm 2 m/s 717 mmHg 61%
    07:00 +17°C° 0 mm 2 m/s 717 mmHg 58%
    08:00 +19°C° 0 mm 2 m/s 717 mmHg 51%
    09:00 +23°C° 0 mm 2 m/s 717 mmHg 43%
    10:00 +26°C° 0 mm 2 m/s 718 mmHg 35%
    11:00 +27°C° 0 mm 2 m/s 717 mmHg 33%
    12:00 +27°C° 0 mm 2 m/s 717 mmHg 31%
    13:00 +28°C° 0 mm 2 m/s 717 mmHg 29%
    14:00 +27°C° 0 mm 3 m/s 716 mmHg 31%
    15:00 +27°C° 0 mm 3 m/s 716 mmHg 34%
    16:00 +26°C° 0 mm 3 m/s 715 mmHg 36%
    17:00 +24°C° 0 mm 3 m/s 715 mmHg 44%
    18:00 +20°C° 0 mm 2 m/s 715 mmHg 53%
    19:00 +18°C° 0 mm 2 m/s 714 mmHg 62%
    20:00 +17°C° 0 mm 2 m/s 714 mmHg 64%
    21:00 +16°C° 0 mm 2 m/s 714 mmHg 65%
    22:00 +15°C° 0 mm 2 m/s 714 mmHg 67%
    23:00 +15°C° 0.4 mm 2 m/s 714 mmHg 70%

    27 Abril, Sábado

    Tempo Temperatura Precipitação Vento Pressão Humidade
    00:00 +14°C° 0.4 mm 1 m/s 714 mmHg 74%
    01:00 +14°C° 0.4 mm 1 m/s 714 mmHg 77%
    02:00 +13°C° 0.2 mm 1 m/s 714 mmHg 80%
    03:00 +13°C° 0.2 mm 1 m/s 714 mmHg 83%
    04:00 +13°C° 0.2 mm 1 m/s 715 mmHg 86%
    05:00 +14°C° 0 mm 1 m/s 715 mmHg 83%
    06:00 +15°C° 0 mm 1 m/s 716 mmHg 80%
    07:00 +16°C° 0 mm 1 m/s 716 mmHg 78%
    08:00 +18°C° 0 mm 1 m/s 716 mmHg 65%
    09:00 +20°C° 0 mm 1 m/s 717 mmHg 53%
    10:00 +21°C° 0 mm 1 m/s 717 mmHg 40%
    11:00 +21°C° 0 mm 2 m/s 717 mmHg 41%
    12:00 +21°C° 0 mm 2 m/s 717 mmHg 41%
    13:00 +21°C° 0 mm 3 m/s 717 mmHg 41%
    14:00 +20°C° 0.2 mm 3 m/s 717 mmHg 49%
    15:00 +18°C° 0.2 mm 3 m/s 716 mmHg 57%
    16:00 +17°C° 0.2 mm 3 m/s 716 mmHg 65%
    17:00 +16°C° 0.4 mm 2 m/s 716 mmHg 72%
    18:00 +14°C° 0.4 mm 2 m/s 716 mmHg 80%
    19:00 +13°C° 0.4 mm 1 m/s 716 mmHg 88%
    20:00 +12°C° 0.2 mm 1 m/s 716 mmHg 89%
    21:00 +11°C° 0.2 mm 1 m/s 717 mmHg 91%
    22:00 +11°C° 0.2 mm 1 m/s 717 mmHg 92%
    23:00 +11°C° 0.1 mm 1 m/s 717 mmHg 93%

    28 Abril, Domingo

    Tempo Temperatura Precipitação Vento Pressão Humidade
    00:00 +9°C° 0.1 mm 0 m/s 717 mmHg 93%
    01:00 +9°C° 0.1 mm 0 m/s 717 mmHg 93%
    02:00 +9°C° 0 mm 0 m/s 716 mmHg 94%
    03:00 +8°C° 0 mm 0 m/s 716 mmHg 95%
    04:00 +8°C° 0 mm 0 m/s 716 mmHg 96%
    05:00 +9°C° 0 mm 0 m/s 716 mmHg 91%
    06:00 +11°C° 0 mm 1 m/s 717 mmHg 86%
    07:00 +12°C° 0 mm 1 m/s 717 mmHg 81%
    08:00 +14°C° 0 mm 1 m/s 717 mmHg 72%
    09:00 +15°C° 0 mm 1 m/s 717 mmHg 62%
    10:00 +18°C° 0 mm 1 m/s 717 mmHg 53%
    11:00 +20°C° 0 mm 1 m/s 716 mmHg 49%
    12:00 +21°C° 0 mm 1 m/s 716 mmHg 46%
    13:00 +22°C° 0 mm 1 m/s 716 mmHg 43%
    14:00 +21°C° 0.1 mm 1 m/s 715 mmHg 47%
    15:00 +20°C° 0.1 mm 1 m/s 715 mmHg 51%
    16:00 +19°C° 0.1 mm 1 m/s 715 mmHg 55%
    17:00 +16°C° 0.5 mm 1 m/s 715 mmHg 65%
    18:00 +14°C° 0.5 mm 1 m/s 715 mmHg 75%
    19:00 +12°C° 0.5 mm 1 m/s 716 mmHg 84%
    20:00 +11°C° 0.2 mm 1 m/s 716 mmHg 88%
    21:00 +8°C° 0.2 mm 2 m/s 717 mmHg 91%
    22:00 +6°C° 0.2 mm 2 m/s 717 mmHg 94%
    23:00 +7°C° 0 mm 1 m/s 717 mmHg 94%
    Mostrar mais